When you browse on this site, cookies collect data to enhance your experience and personalize the content and advertising you see.
Visit our Privacy Policy to learn more. By continuing to use the site, you agree to this use of cookies and data.
  • In Switzerland
  • List of Countries
  • For 7 days
  • Water Temperature
  • Satellite Maps
  • Weather Map
  • Weather Widgets
  • user-avatar
    Login

    Hourly Weather Yangjiang

    Today, 24 May, Friday

    Time Temperature Precipitation Wind Pressure Humidity
    00:00 +27°C° 0.2 mm 1 mps 756 mmHg 92%
    01:00 +27°C° 0.2 mm 1 mps 756 mmHg 92%
    02:00 +27°C° 0.1 mm 2 mps 755 mmHg 93%
    03:00 +27°C° 0.1 mm 2 mps 755 mmHg 93%
    04:00 +27°C° 0.1 mm 2 mps 755 mmHg 94%
    05:00 +28°C° 0.2 mm 2 mps 755 mmHg 91%
    06:00 +28°C° 0.2 mm 2 mps 755 mmHg 87%
    07:00 +29°C° 0.2 mm 3 mps 756 mmHg 84%
    08:00 +30°C° 0.3 mm 3 mps 756 mmHg 81%
    09:00 +32°C° 0.3 mm 4 mps 756 mmHg 78%
    10:00 +33°C° 0.3 mm 4 mps 756 mmHg 74%
    11:00 +33°C° 1.3 mm 5 mps 755 mmHg 75%
    12:00 +33°C° 1.3 mm 5 mps 755 mmHg 75%
    13:00 +33°C° 1.3 mm 5 mps 755 mmHg 76%
    14:00 +32°C° 0.5 mm 5 mps 754 mmHg 77%
    15:00 +32°C° 0.5 mm 6 mps 754 mmHg 79%
    16:00 +32°C° 0.5 mm 6 mps 754 mmHg 80%
    17:00 +30°C° 0.3 mm 5 mps 754 mmHg 84%
    18:00 +29°C° 0.3 mm 4 mps 754 mmHg 88%
    19:00 +28°C° 0.3 mm 3 mps 754 mmHg 92%
    20:00 +28°C° 0.6 mm 3 mps 754 mmHg 93%
    21:00 +28°C° 0.6 mm 3 mps 755 mmHg 93%
    22:00 +27°C° 0.6 mm 2 mps 755 mmHg 94%
    23:00 +27°C° 0.2 mm 2 mps 755 mmHg 94%

    Tomorrow, 25 May, Saturday

    Time Temperature Precipitation Wind Pressure Humidity
    00:00 +27°C° 0.2 mm 2 mps 755 mmHg 95%
    01:00 +27°C° 0.2 mm 2 mps 754 mmHg 95%
    02:00 +27°C° 0.2 mm 2 mps 754 mmHg 95%
    03:00 +27°C° 0.2 mm 2 mps 754 mmHg 95%
    04:00 +27°C° 0.2 mm 2 mps 754 mmHg 95%
    05:00 +28°C° 0.1 mm 2 mps 754 mmHg 91%
    06:00 +29°C° 0.1 mm 2 mps 754 mmHg 87%
    07:00 +30°C° 0.1 mm 2 mps 755 mmHg 84%
    08:00 +31°C° 0.2 mm 3 mps 755 mmHg 79%
    09:00 +33°C° 0.2 mm 3 mps 755 mmHg 73%
    10:00 +34°C° 0.2 mm 4 mps 755 mmHg 68%
    11:00 +34°C° 0.1 mm 5 mps 755 mmHg 68%
    12:00 +34°C° 0.1 mm 5 mps 754 mmHg 68%
    13:00 +34°C° 0.1 mm 6 mps 754 mmHg 68%
    14:00 +33°C° 0 mm 5 mps 753 mmHg 71%
    15:00 +33°C° 0 mm 5 mps 753 mmHg 73%
    16:00 +32°C° 0 mm 5 mps 752 mmHg 75%
    17:00 +30°C° 0 mm 4 mps 752 mmHg 80%
    18:00 +29°C° 0 mm 3 mps 753 mmHg 85%
    19:00 +28°C° 0 mm 2 mps 753 mmHg 90%
    20:00 +28°C° 0 mm 2 mps 754 mmHg 91%
    21:00 +28°C° 0 mm 2 mps 754 mmHg 92%
    22:00 +28°C° 0 mm 2 mps 754 mmHg 93%
    23:00 +28°C° 0.5 mm 2 mps 754 mmHg 94%

    Day after tomorrow, 26 May, Sunday

    Time Temperature Precipitation Wind Pressure Humidity
    00:00 +28°C° 0.5 mm 2 mps 754 mmHg 94%
    01:00 +28°C° 0.5 mm 2 mps 754 mmHg 95%
    02:00 +28°C° 1.8 mm 2 mps 753 mmHg 94%
    03:00 +28°C° 1.8 mm 2 mps 753 mmHg 94%
    04:00 +28°C° 1.8 mm 2 mps 753 mmHg 93%
    05:00 +28°C° 2.5 mm 2 mps 753 mmHg 91%
    06:00 +29°C° 2.5 mm 2 mps 754 mmHg 90%
    07:00 +29°C° 2.5 mm 2 mps 754 mmHg 88%
    08:00 +30°C° 2.2 mm 2 mps 754 mmHg 87%
    09:00 +30°C° 2.2 mm 2 mps 755 mmHg 86%
    10:00 +30°C° 2.2 mm 2 mps 755 mmHg 86%
    11:00 +30°C° 0.1 mm 3 mps 754 mmHg 83%
    12:00 +31°C° 0.1 mm 3 mps 754 mmHg 80%
    13:00 +33°C° 0.1 mm 3 mps 753 mmHg 78%
    14:00 +33°C° 0 mm 4 mps 753 mmHg 77%
    15:00 +33°C° 0 mm 4 mps 752 mmHg 77%
    16:00 +33°C° 0 mm 4 mps 752 mmHg 77%
    17:00 +32°C° 0.1 mm 4 mps 752 mmHg 81%
    18:00 +30°C° 0.1 mm 3 mps 753 mmHg 86%
    19:00 +29°C° 0.1 mm 2 mps 753 mmHg 90%
    20:00 +28°C° 0.1 mm 2 mps 754 mmHg 91%
    21:00 +28°C° 0.1 mm 2 mps 754 mmHg 92%
    22:00 +28°C° 0.1 mm 2 mps 755 mmHg 93%
    23:00 +28°C° 0.5 mm 2 mps 754 mmHg 93%

    27 May, Monday

    Time Temperature Precipitation Wind Pressure Humidity
    00:00 +28°C° 0.5 mm 1 mps 754 mmHg 93%
    01:00 +28°C° 0.5 mm 1 mps 753 mmHg 93%
    02:00 +28°C° 0.3 mm 1 mps 753 mmHg 93%
    03:00 +28°C° 0.3 mm 1 mps 753 mmHg 93%
    04:00 +27°C° 0.3 mm 1 mps 753 mmHg 93%
    05:00 +28°C° 0.1 mm 1 mps 753 mmHg 89%
    06:00 +29°C° 0.1 mm 2 mps 754 mmHg 86%
    07:00 +30°C° 0.1 mm 2 mps 754 mmHg 82%
    08:00 +31°C° 0.6 mm 2 mps 755 mmHg 79%
    09:00 +33°C° 0.6 mm 3 mps 755 mmHg 75%
    10:00 +34°C° 0.6 mm 3 mps 755 mmHg 71%
    11:00 +34°C° 1.3 mm 4 mps 755 mmHg 71%
    12:00 +34°C° 1.3 mm 4 mps 754 mmHg 71%
    13:00 +34°C° 1.3 mm 4 mps 754 mmHg 70%
    14:00 +33°C° 0.1 mm 4 mps 753 mmHg 72%
    15:00 +33°C° 0.1 mm 4 mps 753 mmHg 74%
    16:00 +31°C° 0.1 mm 3 mps 753 mmHg 76%
    17:00 +30°C° 0 mm 2 mps 754 mmHg 80%
    18:00 +29°C° 0 mm 2 mps 754 mmHg 84%
    19:00 +28°C° 0 mm 1 mps 754 mmHg 88%
    20:00 +28°C° 0 mm 1 mps 755 mmHg 89%
    21:00 +28°C° 0 mm 1 mps 755 mmHg 89%
    22:00 +28°C° 0 mm 1 mps 756 mmHg 90%
    23:00 +28°C° 0 mm 1 mps 755 mmHg 90%

    28 May, Tuesday

    Time Temperature Precipitation Wind Pressure Humidity
    00:00 +28°C° 0 mm 1 mps 755 mmHg 90%
    01:00 +28°C° 0 mm 1 mps 755 mmHg 90%
    02:00 +27°C° 0.1 mm 1 mps 754 mmHg 90%
    03:00 +27°C° 0.1 mm 1 mps 754 mmHg 90%
    04:00 +27°C° 0.1 mm 1 mps 754 mmHg 90%
    05:00 +28°C° 0 mm 2 mps 755 mmHg 88%
    06:00 +29°C° 0 mm 2 mps 755 mmHg 86%
    07:00 +29°C° 0 mm 2 mps 756 mmHg 84%
    08:00 +30°C° 0.4 mm 2 mps 756 mmHg 80%
    09:00 +31°C° 0.4 mm 2 mps 756 mmHg 77%
    10:00 +33°C° 0.4 mm 3 mps 757 mmHg 73%
    11:00 +32°C° 1.8 mm 2 mps 756 mmHg 74%
    12:00 +32°C° 1.8 mm 2 mps 756 mmHg 74%
    13:00 +32°C° 1.8 mm 2 mps 755 mmHg 75%
    14:00 +32°C° 1.1 mm 2 mps 755 mmHg 75%
    15:00 +31°C° 1.1 mm 2 mps 755 mmHg 76%
    16:00 +31°C° 1.1 mm 2 mps 754 mmHg 76%
    17:00 +30°C° 0.5 mm 2 mps 755 mmHg 80%
    18:00 +29°C° 0.5 mm 2 mps 755 mmHg 84%
    19:00 +28°C° 0.5 mm 2 mps 756 mmHg 89%
    20:00 +28°C° 0.1 mm 2 mps 756 mmHg 89%
    21:00 +28°C° 0.1 mm 2 mps 756 mmHg 90%
    22:00 +27°C° 0.1 mm 2 mps 757 mmHg 91%
    23:00 +27°C° 0.1 mm 3 mps 756 mmHg 92%

    29 May, Wednesday

    Time Temperature Precipitation Wind Pressure Humidity
    00:00 +27°C° 0.1 mm 3 mps 756 mmHg 94%
    01:00 +27°C° 0.1 mm 3 mps 756 mmHg 95%
    02:00 +27°C° 0.1 mm 3 mps 756 mmHg 95%
    03:00 +27°C° 0.1 mm 3 mps 756 mmHg 95%
    04:00 +26°C° 0.1 mm 3 mps 755 mmHg 95%
    05:00 +27°C° 0 mm 3 mps 756 mmHg 93%
    06:00 +27°C° 0 mm 4 mps 756 mmHg 91%
    07:00 +28°C° 0 mm 4 mps 756 mmHg 89%
    08:00 +28°C° 0.4 mm 4 mps 757 mmHg 87%
    09:00 +29°C° 0.4 mm 5 mps 757 mmHg 85%
    10:00 +29°C° 0.4 mm 5 mps 757 mmHg 83%
    11:00 +29°C° 0.9 mm 5 mps 756 mmHg 83%
    12:00 +29°C° 0.9 mm 5 mps 756 mmHg 84%
    13:00 +29°C° 0.9 mm 5 mps 755 mmHg 84%
    14:00 +29°C° 0.4 mm 5 mps 755 mmHg 84%
    15:00 +29°C° 0.4 mm 5 mps 755 mmHg 84%
    16:00 +29°C° 0.4 mm 5 mps 755 mmHg 85%
    17:00 +29°C° 0.1 mm 5 mps 755 mmHg 87%
    18:00 +28°C° 0.1 mm 4 mps 755 mmHg 90%
    19:00 +27°C° 0.1 mm 3 mps 755 mmHg 93%
    20:00 +27°C° 0.1 mm 3 mps 756 mmHg 94%
    21:00 +27°C° 0.1 mm 3 mps 756 mmHg 94%
    22:00 +27°C° 0.1 mm 2 mps 756 mmHg 95%
    23:00 +27°C° 0.2 mm 2 mps 756 mmHg 95%
    Show more